Weather History for Albemarle, NC

Change the Weather History Date:

Sunday, February 2, 2014

  Actual Average (KHBI) Record (KHBI)
Temperature  
Mean Temperature 48 °F -  
Max Temperature 66 °F 53 °F 80 °F (1989)
Min Temperature 30 °F 34 °F 12 °F (1971)
Degree Days  
Heating Degree Days 17    
Moisture  
Dew Point 45 °F    
Average Humidity 84    
Maximum Humidity 100    
Minimum Humidity 55    
Precipitation  
Precipitation 0.00 in - - ()
Sea Level Pressure  
Sea Level Pressure 30.11 in    
Wind  
Wind Speed 4 mph (SSW)    
Max Wind Speed 13 mph    
Max Gust Speed 17 mph    
Visibility 8 miles    
Events Fog    
Averages and records for this station are not official NWS values.
T = Trace of Precipitation, MM = Missing Value Source: NWS Daily Summary

Daily Weather History Graph

Daily Weather History Graph

Search for Another Location

Airport:

Trip Planner

Search our weather history database for the weather conditions in past years. The results will help you decide how hot, cold, wet, or windy it might be!

Date:

Astronomy

Feb. 02, 2014 Rise Set
Actual Time 7:19 AM EST 5:49 PM EST
Civil Twilight 6:52 AM EST 6:16 PM EST
Nautical Twilight 6:22 AM EST 6:46 PM EST
Astronomical Twilight 5:52 AM EST 7:16 PM EST
Moon 8:53 AM EST (2/2) 9:22 PM EST (2/2)
Length of Visible Light 11h 23m
Length of Day
10h 30m
Waxing Crescent, 11% of the Moon is Illuminated
Feb 2
Waxing Crescent
Feb 6
First Quarter
Feb 14
Full
Feb 22
Last Quarter
Mar 1
New

Hourly Weather History & Observations

Time (EST) Temp. Windchill Dew Point Humidity Pressure Visibility Wind Dir Wind Speed Gust Speed Precip Events Conditions
12:15 AM 44.8 °F 42.4 °F 40.6 °F 85% 30.15 in 10.0 mi SSW 4.6 mph - N/A   Overcast
12:35 AM 44.6 °F 42.2 °F 40.8 °F 87% 30.14 in 10.0 mi SSW 4.6 mph - N/A   Overcast
12:55 AM 43.7 °F 42.1 °F 40.6 °F 89% 30.14 in 10.0 mi SW 3.5 mph - N/A   Overcast
1:15 AM 44.1 °F 41.5 °F 41.0 °F 89% 30.13 in 10.0 mi SW 4.6 mph - N/A   Overcast
1:35 AM 42.8 °F 39.3 °F 40.5 °F 91% 30.13 in 10.0 mi SW 5.8 mph - N/A   Mostly Cloudy
1:55 AM 40.6 °F 38.6 °F 39.2 °F 95% 30.13 in 10.0 mi SSW 3.5 mph - N/A   Mostly Cloudy
2:15 AM 42.8 °F - 41.0 °F 93% 30.13 in 10.0 mi Calm Calm - N/A   Overcast
2:35 AM 43.9 °F 42.3 °F 41.9 °F 93% 30.13 in 10.0 mi SSW 3.5 mph - N/A   Overcast
2:55 AM 43.9 °F - 41.7 °F 92% 30.13 in 10.0 mi Calm Calm - N/A   Overcast
3:15 AM 43.7 °F - 41.5 °F 92% 30.13 in 10.0 mi Calm Calm - N/A   Overcast
3:35 AM 42.1 °F - 40.8 °F 95% 30.12 in 10.0 mi Calm Calm - N/A   Mostly Cloudy
3:55 AM 41.2 °F - 40.8 °F 99% 30.12 in 7.0 mi Calm Calm - N/A   Scattered Clouds
4:15 AM 39.0 °F - 38.8 °F 99% 30.12 in 5.0 mi Calm Calm - N/A   Clear
4:35 AM 36.9 °F - 36.9 °F 100% 30.12 in 4.0 mi Calm Calm - N/A   Clear
4:55 AM 35.6 °F - 35.6 °F 100% 30.12 in 0.8 mi Calm Calm - N/A   Mostly Cloudy
5:15 AM 34.3 °F - 34.3 °F 100% 30.12 in 3.0 mi Calm Calm - N/A   Scattered Clouds
5:35 AM 32.5 °F - 32.5 °F 100% 30.12 in 5.0 mi Calm Calm - N/A   Mostly Cloudy
5:55 AM 32.2 °F - 32.0 °F 99% 30.12 in 7.0 mi Calm Calm - N/A   Overcast
6:15 AM 32.0 °F - 32.0 °F 100% 30.12 in 1.5 mi Calm Calm - N/A   Overcast
6:35 AM 31.1 °F - 31.1 °F 100% 30.12 in 0.2 mi Calm Calm - N/A Fog Light Freezing Fog
6:55 AM 30.7 °F - 30.7 °F 100% 30.12 in 0.2 mi Calm Calm - N/A Fog Light Freezing Fog
7:15 AM 30.6 °F - 30.6 °F 100% 30.12 in 0.2 mi Calm Calm - N/A Fog Light Freezing Fog
7:35 AM 32.0 °F 28.7 °F 32.0 °F 100% 30.12 in 0.2 mi SW 3.5 mph - N/A Fog Fog
7:55 AM 36.1 °F - 36.1 °F 100% 30.13 in 0.2 mi Calm Calm - N/A Fog Fog
8:15 AM 36.9 °F - 36.9 °F 100% 30.14 in 0.2 mi Calm Calm - N/A Fog Fog
8:35 AM 39.6 °F - 39.6 °F 100% 30.15 in 0.2 mi Calm Calm - N/A Fog Fog
8:55 AM 40.3 °F - 40.3 °F 100% 30.16 in 0.2 mi Calm Calm - N/A Fog Fog
9:15 AM 41.4 °F 39.4 °F 41.4 °F 100% 30.17 in 0.2 mi SSW 3.5 mph - N/A Fog Fog
9:35 AM 42.6 °F 39.0 °F 42.6 °F 100% 30.17 in 1.5 mi SSW 5.8 mph - N/A   Overcast
9:55 AM 43.9 °F - 43.9 °F 100% 30.17 in 4.0 mi North - - N/A   Overcast
10:15 AM 45.9 °F 41.2 °F 45.9 °F 100% 30.17 in 7.0 mi SSW 9.2 mph - N/A   Overcast
10:35 AM 47.8 °F - 46.9 °F 97% 30.17 in 10.0 mi SSW 8.1 mph - N/A   Mostly Cloudy
10:55 AM 50.2 °F - 47.7 °F 91% 30.17 in 10.0 mi SSW 6.9 mph - N/A   Scattered Clouds
11:15 AM 55.2 °F - 46.4 °F 72% 30.17 in 10.0 mi SW 11.5 mph - N/A   Clear
11:35 AM 56.7 °F - 46.4 °F 69% 30.15 in 10.0 mi WSW 11.5 mph 17.3 mph N/A   Clear
11:55 AM 58.1 °F - 47.1 °F 67% 30.14 in 10.0 mi SW 9.2 mph - N/A   Clear
12:15 PM 59.5 °F - 47.5 °F 64% 30.14 in 10.0 mi WSW 10.4 mph - N/A   Clear
12:35 PM 60.3 °F - 47.5 °F 63% 30.12 in 10.0 mi SSW 9.2 mph - N/A   Clear
12:55 PM 62.1 °F - 48.6 °F 61% 30.11 in 10.0 mi SW 10.4 mph - N/A   Clear
1:15 PM 63.0 °F - 48.6 °F 59% 30.10 in 10.0 mi SW 11.5 mph - N/A   Clear
1:35 PM 63.5 °F - 48.7 °F 59% 30.09 in 10.0 mi SW 12.7 mph - N/A   Clear
1:55 PM 64.2 °F - 48.9 °F 58% 30.09 in 10.0 mi SSW 10.4 mph 16.1 mph N/A   Clear
2:15 PM 64.2 °F - 48.9 °F 58% 30.08 in 10.0 mi SW 8.1 mph - N/A   Clear
2:35 PM 65.8 °F - 49.3 °F 55% 30.07 in 10.0 mi South 10.4 mph 16.1 mph N/A   Clear
2:55 PM 65.3 °F - 49.3 °F 56% 30.07 in 10.0 mi SSW 11.5 mph 16.1 mph N/A   Clear
3:15 PM 66.0 °F - 49.8 °F 56% 30.07 in 10.0 mi SSW 11.5 mph - N/A   Clear
3:35 PM 65.7 °F - 49.8 °F 57% 30.07 in 10.0 mi SSW 9.2 mph - N/A   Clear
3:55 PM 65.8 °F - 50.2 °F 57% 30.07 in 10.0 mi SSW 10.4 mph - N/A   Clear
4:15 PM 65.8 °F - 50.4 °F 57% 30.07 in 10.0 mi SW 10.4 mph - N/A   Clear
4:35 PM 65.7 °F - 50.4 °F 58% 30.07 in 10.0 mi SSW 5.8 mph - N/A   Clear
4:55 PM 65.3 °F - 50.4 °F 58% 30.07 in 10.0 mi South 8.1 mph - N/A   Clear
5:15 PM 64.2 °F - 50.2 °F 60% 30.07 in 10.0 mi SW 8.1 mph - N/A   Clear
5:35 PM 62.6 °F - 50.0 °F 63% 30.07 in 10.0 mi SSW 6.9 mph - N/A   Clear
5:55 PM 56.8 °F - 48.0 °F 72% 30.07 in 10.0 mi South 6.9 mph - N/A   Clear
6:15 PM 58.6 °F - 50.9 °F 75% 30.07 in 10.0 mi SSE 4.6 mph - N/A   Clear
6:35 PM 57.2 °F - 50.4 °F 78% 30.08 in 10.0 mi Calm Calm - N/A   Clear
6:55 PM 54.9 °F - 49.5 °F 82% 30.08 in 10.0 mi South 5.8 mph - N/A   Clear
7:15 PM 56.5 °F - 50.9 °F 82% 30.08 in 10.0 mi South 5.8 mph - N/A   Clear
7:35 PM 56.3 °F - 50.9 °F 82% 30.07 in 10.0 mi South 6.9 mph - N/A   Clear
7:55 PM 56.5 °F - 50.9 °F 82% 30.07 in 10.0 mi South 5.8 mph - N/A   Clear
8:15 PM 56.5 °F - 51.3 °F 83% 30.07 in 10.0 mi South 5.8 mph - N/A   Clear
8:35 PM 55.4 °F - 50.9 °F 85% 30.07 in 10.0 mi SSW 8.1 mph - N/A   Clear
8:55 PM 52.7 °F - 50.0 °F 91% 30.08 in 10.0 mi SSW 8.1 mph - N/A   Clear
9:15 PM 50.9 °F - 49.1 °F 94% 30.08 in 10.0 mi SSW 5.8 mph - N/A   Clear
9:35 PM 52.2 °F - 50.4 °F 94% 30.08 in 10.0 mi South 4.6 mph - N/A   Clear
9:55 PM 52.7 °F - 50.9 °F 94% 30.08 in 10.0 mi South 5.8 mph - N/A   Clear
10:15 PM 52.5 °F - 50.9 °F 94% 30.07 in 10.0 mi South 3.5 mph - N/A   Clear
10:35 PM 52.0 °F - 50.9 °F 96% 30.07 in 10.0 mi South 4.6 mph - N/A   Clear
10:55 PM 51.1 °F - 50.4 °F 97% 30.07 in 10.0 mi SSW 3.5 mph - N/A   Clear
11:15 PM 50.4 °F - 50.0 °F 99% 30.06 in 10.0 mi Calm Calm - N/A   Clear
11:35 PM 50.2 °F - 50.2 °F 100% 30.06 in 10.0 mi Calm Calm - N/A   Clear
11:55 PM 50.2 °F - 50.2 °F 100% 30.05 in 10.0 mi Calm Calm - N/A   Scattered Clouds